Tracking 29932 objects as of 4-Dec-2024
HD Live streaming from Space Station
objects crossing your sky now

STARLINK-31786

Track STARLINK-31786 now!
10-day predictions
STARLINK-31786 is classified as:


NORAD ID: 59771
Int'l Code: 2024-091U
Perigee: 481.8 km
Apogee: 482.8 km
Inclination: 53.2 °
Period: 94.1 minutes
Semi major axis: 6853 km
RCS: Unknown
Launch date: May 14, 2024
Source: United States (US)
Launch site: AIR FORCE WESTERN TEST RANGE (AFWTR)
Your satellite tracking list
Your tracking list is empty




NASA's NSSDC Master Catalog

Two Line Element Set (TLE):
1 59771U 24091U   24338.38349398  .00020669  00000-0  70777-3 0  9996
2 59771  53.1579   9.7987 0000727  98.2746 261.8337 15.30211499 32373
Source of the keplerian elements: AFSPC